Weather History for K1V4 - November, 2010

Change the Weather History Date:

Saturday, November 20, 2010

  Actual Average Record
Temperature  
Mean Temperature 34 °F 34 °F  
Max Temperature 43 °F 42 °F 68 °F (1991)
Min Temperature 24 °F 27 °F 4 °F (1894)
Degree Days  
Heating Degree Days 32 31  
Month to date heating degree days 538  
Since 1 July heating degree days 1325  
Cooling Degree Days 0 0  
Month to date cooling degree days 0  
Year to date cooling degree days 433  
Moisture  
Dew Point 21 °F    
Average Humidity 62    
Maximum Humidity 85    
Minimum Humidity 42    
Precipitation  
Precipitation 0.01 in 0.12 in 1.53 in (1948)
Month to date precipitation 2.30  
Year to date precipitation 35.32  
Sea Level Pressure  
Sea Level Pressure 30.03 in    
Wind  
Wind Speed - (North)    
Max Wind Speed -    
Max Gust Speed -    
T = Trace of Precipitation, MM = Missing Value Source: NWS Daily Summary

Daily Weather History Graph

Daily Weather History Graph

Search for Another Location

Airport or City:

Trip Planner

Search our weather history database for the weather conditions in past years. The results will help you decide how hot, cold, wet, or windy it might be!

Date:

Astronomy

Nov. 20, 2010 Rise Set
Actual Time 6:50 AM EST 4:16 PM EST
Civil Twilight 6:18 AM EST 4:48 PM EST
Nautical Twilight 5:43 AM EST 5:23 PM EST
Astronomical Twilight 5:08 AM EST 5:58 PM EST
Moon 3:20 PM EST (11/20) 5:47 AM EST (11/20)
Length of Visible Light 10h 29m
Length of Day
9h 25m
Waxing Gibbous, 99% of the Moon is Illuminated
Nov 20
Waxing Gibbous
Nov 21
Full
Nov 28
Last Quarter
Dec 5
New
Dec 13
First Quarter

Hourly Weather History & Observations

Time (EST) Temp. Dew Point Humidity Pressure Visibility Wind Dir Wind Speed Gust Speed Precip Events Conditions
12:54 AM 24.1 °F 19.9 °F 84% 30.10 in - North - - N/A   Unknown
1:54 AM 25.0 °F 21.0 °F 85% 30.07 in - North - - N/A   Unknown
2:54 AM 26.1 °F 21.0 °F 81% 30.03 in - North - - N/A   Unknown
3:54 AM 28.0 °F 21.0 °F 75% 29.98 in - North - - N/A   Unknown
4:54 AM 30.0 °F 19.9 °F 66% 29.94 in - North - - N/A   Unknown
5:54 AM 30.9 °F 21.0 °F 67% 29.91 in - North - - N/A   Unknown
6:54 AM 32.0 °F 21.9 °F 66% 29.91 in - North - - N/A   Unknown
7:54 AM 33.1 °F 21.9 °F 64% 29.88 in - North - - N/A   Unknown
8:54 AM 34.0 °F 24.1 °F 67% 29.87 in - North - - N/A   Unknown
9:54 AM 37.0 °F 26.1 °F 65% 29.83 in - North - - N/A   Unknown
10:54 AM 37.9 °F 28.0 °F 68% 29.82 in - North - - N/A   Unknown
11:54 AM 37.9 °F 32.0 °F 79% 29.87 in - North - - 0.01 in   Unknown
12:54 PM 41.0 °F 28.9 °F 62% 29.88 in - North - - N/A   Unknown
1:54 PM 43.0 °F 21.0 °F 42% 29.91 in - North - - N/A   Unknown
2:54 PM 39.9 °F 19.0 °F 43% 29.97 in - North - - N/A   Unknown
3:54 PM 39.0 °F 19.9 °F 46% 30.02 in - North - - N/A   Unknown
4:54 PM 37.0 °F 19.9 °F 50% 30.08 in - North - - N/A   Unknown
5:54 PM 37.0 °F 19.0 °F 48% 30.12 in - North - - N/A   Unknown
6:54 PM 35.1 °F 17.1 °F 48% 30.16 in - North - - N/A   Unknown
7:54 PM 34.0 °F 18.0 °F 52% 30.20 in - North - - N/A   Unknown
8:54 PM 32.0 °F 15.1 °F 50% 30.23 in - North - - N/A   Unknown
9:54 PM 30.9 °F 16.0 °F 54% 30.26 in - North - - N/A   Unknown
10:54 PM 28.9 °F 15.1 °F 56% 30.29 in - North - - N/A   Unknown
11:54 PM 27.0 °F 14.0 °F 58% 30.34 in - North - - N/A   Unknown